リニア-カタリナ彗星

P/2003 WC7 ( LINEAR-Catalina )

English version
Home page
Updated on June 5, 2004

---------------------------------------------------------------------

・ プロフィール

発見日 2003年11月18日, 2004年1月31日
発見光度 19.6等, 17.6等
発見者 Lincoln Laboratory Near-Earth Asteroid Research project, Catalina Sky Survey

・ 軌道要素

Epoch 2004 Feb. 5.0 TT = JDT 2453040.5
T 2004 Feb. 5.74866 TT                                  MPC
q   1.6548277            (2000.0)            P               Q
n   0.08351954     Peri.  341.05857     +0.30440670     -0.88110239
a   5.1833516      Node    89.89020     +0.91400009     +0.16319265
e   0.6807418      Incl.   21.21897     +0.26821707     +0.44387694
P  11.80

・ 星図

・ 光度変化

        m1 = 14.0 + 5 logΔ + 10.0 log r

---------------------------------------------------------------------

軌道要素はM.P.E.C. 2004-E04に掲載されたものです。
星図は StellaNavigator Ver.2.0 for Windows (アストロアーツ 編著 / アスキー出版局刊) で作成したものです。
光度グラフはComet for Windowsで作成したものです。

---------------------------------------------------------------------

Copyright(C) Seiichi Yoshida (comet@aerith.net). All rights reserved.